This demonstration page uses our WeatherBlox Daily Observations layout. Learn more.

Hourly Observations for June 19, 2018

Temp ( °F °C ) Dew Point ( °F °C ) Humidity (%) Winds ( mph kmh ) Pressure ( in mb ) Visibility ( mi km ) Precip ( " mm )
12:15 am 00:15 Partly Cloudy 69 20.8 69 20.5 98 98 NNE 5 7 29.88 1012 7 11.265408 0 0
12:35 am 00:35 Clear 69 20.5 69 20.3 99 99 N 7 11 29.88 1012 7 11.265408 0 0
12:55 am 00:55 Clear 69 20.5 69 20.3 99 99 N 7 11 29.88 1012 7 11.265408 0 0
1:15 am 01:15 Partly Cloudy 69 20.3 68 20.2 99 99 NNE 7 11 29.88 1012 7 11.265408 0 0
1:35 am 01:35 Clear with Mist and Fog 68 20.2 68 20.1 99 99 NE 6 9 29.88 1012 5 8.04672 0 0
1:55 am 01:55 Clear with Mist and Fog 69 20.5 69 20.3 99 99 NNE 7 11 29.85 1011 5 8.04672 0 0
2:15 am 02:15 Clear with Mist and Fog 68 20.1 68 20 99 99 NW 5 7 29.85 1011 5 8.04672 0 0
2:35 am 02:35 Clear with Mist and Fog 69 20.5 69 20.5 100 100 Calm 29.85 1011 5 8.04672 0 0
2:55 am 02:55 Clear with Mist and Fog 68 19.8 68 19.8 100 100 Calm 29.85 1011 4 6.437376 0 0
3:15 am 03:15 Clear with Mist and Fog 67 19.7 67 19.7 100 100 Calm 29.85 1011 4 6.437376 0 0
3:35 am 03:35 Partly Cloudy with Mist and Fog 67 19.7 67 19.7 100 100 NNW 5 7 29.85 1011 4 6.437376 0 0
3:55 am 03:55 Cloudy with Mist and Fog 68 20 68 20 100 100 NNW 7 11 29.88 1012 3 4.828032 0 0
4:15 am 04:15 Cloudy with Mist and Fog 68 20.2 68 20.2 100 100 NW 13 20 29.91 1013 5 8.04672 0 0
4:35 am 04:35 Cloudy with Light Drizzle 68 20 67 19.6 98 98 NNW 14 22 29.91 1013 7 11.265408 0 0
4:55 am 04:55 Cloudy 67 19.3 66 18.7 96 96 N 14 22 29.94 1014 10 16.09344 0 0
5:15 am 05:15 Cloudy 67 19.2 65 18.6 96 96 N 12 19 29.94 1014 10 16.09344 0 0
5:35 am 05:35 Partly Cloudy 66 18.7 65 18.1 96 96 N 8 13 29.94 1014 10 16.09344 0 0
5:55 am 05:55 Partly Cloudy 65 18.4 65 18.1 98 98 NNE 8 13 29.94 1014 10 16.09344 0 0
6:15 am 06:15 Sunny 65 18.1 64 18 99 99 NE 6 9 29.91 1013 10 16.09344 0 0
6:35 am 06:35 Sunny 64 18 64 18 100 100 N 5 7 29.94 1014 10 16.09344 0 0
6:55 am 06:55 Sunny 65 18.5 65 18.3 99 99 NNW 5 7 29.94 1014 10 16.09344 0 0
7:15 am 07:15 Sunny 66 19 65 18.5 97 97 N 9 15 29.94 1014 10 16.09344 0 0
7:35 am 07:35 Partly Cloudy 66 19.1 65 18.6 97 97 N 7 11 29.94 1014 10 16.09344 0 0
7:55 am 07:55 Mostly Cloudy 67 19.6 66 18.8 95 95 N 8 13 29.91 1013 10 16.09344 0 0
8:15 am 08:15 Mostly Cloudy 67 19.3 65 18.5 95 95 N 8 13 29.94 1014 10 16.09344 0 0
8:35 am 08:35 Partly Cloudy 69 20.5 67 19.2 92 92 NNE 6 9 29.91 1013 10 16.09344 0 0
8:55 am 08:55 Sunny 71 21.4 66 19.1 87 87 NNE 8 13 29.91 1013 10 16.09344 0 0
9:15 am 09:15 Partly Cloudy 72 22 67 19.2 84 84 NNE 10 17 29.91 1013 10 16.09344 0 0
9:35 am 09:35 Partly Cloudy 72 22.1 66 19 83 83 N 12 19 29.91 1013 10 16.09344 0 0
9:55 am 09:55 Mostly Cloudy 72 22.3 66 19.1 82 82 NNE 10 17 29.91 1013 10 16.09344 0 0
10:15 am 10:15 Cloudy 73 22.9 66 19 79 79 NE 12 19 29.91 1013 10 16.09344 0 0
10:35 am 10:35 Mostly Cloudy 74 23.3 67 19.5 79 79 NE 12 19 29.88 1012 10 16.09344 0 0
10:55 am 10:55 Partly Cloudy 75 24 66 19.1 74 74 NE 12 19 29.88 1012 10 16.09344 0 0
11:15 am 11:15 Mostly Cloudy 77 24.9 67 19.4 72 72 ENE 15 24 29.85 1011 10 16.09344 0 0
11:35 am 11:35 Mostly Cloudy 77 24.9 67 19.3 71 71 ENE 9 15 29.85 1011 10 16.09344 0 0
11:55 am 11:55 Mostly Cloudy 77 25 67 19.2 70 70 E 13 20 29.85 1011 10 16.09344 0 0
12:15 pm 12:15 Mostly Cloudy 77 25.2 67 19.7 72 72 E 12 19 29.85 1011 10 16.09344 0 0
12:35 pm 12:35 Mostly Cloudy 78 25.7 67 19.7 70 70 E 13 20 29.85 1011 10 16.09344 0 0
12:55 pm 12:55 Mostly Cloudy 78 25.3 67 19.4 70 70 E 10 17 29.85 1011 10 16.09344 0 0
1:15 pm 13:15 Mostly Cloudy 79 26 68 19.8 69 69 E 14 22 29.85 1011 10 16.09344 0 0
1:35 pm 13:35 Cloudy 79 26.3 68 20 68 68 E 14 22 29.85 1011 10 16.09344 0 0
1:55 pm 13:55 Cloudy 79 26.3 68 20 68 68 ESE 10 17 29.85 1011 10 16.09344 0 0
2:15 pm 14:15 Cloudy 80 26.5 68 20.1 68 68 ENE 9 15 29.8 1009 10 16.09344 0 0
2:35 pm 14:35 Cloudy 80 26.5 69 20.5 70 70 ENE 9 15 29.8 1009 10 16.09344 0 0
2:55 pm 14:55 Cloudy 81 27.2 69 20.6 67 67 ENE 7 11 29.8 1009 10 16.09344 0 0
3:15 pm 15:15 Cloudy 81 27 69 20.7 68 68 ENE 10 17 29.8 1009 10 16.09344 0 0
3:35 pm 15:35 Cloudy 81 27.1 70 21 69 69 NE 13 20 29.8 1009 10 16.09344 0 0
3:55 pm 15:55 Cloudy 79 26.1 69 20.5 71 71 NE 12 19 29.77 1008 10 16.09344 0 0
4:15 pm 16:15 Cloudy 76 24.2 71 21.4 84 84 NE 17 28 29.8 1009 10 16.09344 0 0
4:35 pm 16:35 Mostly Cloudy 74 23.6 70 21.3 87 87 NE 14 22 29.8 1009 10 16.09344 0 0
4:55 pm 16:55 Cloudy with Nearby Thunderstorms 72 22.2 71 21.5 96 96 N 24 39 29.77 1008 1.5 2.414016 0.29 7.366
5:15 pm 17:15 Cloudy with Heavy Thunderstorms 71 21.6 70 21.3 98 98 NNE 18 30 29.83 1010 1.25 2.01168 0.65 16.51
5:35 pm 17:35 Cloudy with Thunderstorms 71 21.6 65 18.5 83 83 NW 3 6 29.83 1010 3 4.828032 1.14 28.956
5:55 pm 17:55 Cloudy with Thunderstorms 69 20.4 67 19.2 93 93 SE 13 20 29.83 1010 4 6.437376 1.28 32.512
6:15 pm 18:15 Mostly Cloudy with Light Thunderstorms 68 20.1 67 19.4 96 96 E 7 11 29.8 1009 10 16.09344 0.05 1.27
6:35 pm 18:35 Partly Cloudy 70 21.2 70 20.9 98 98 NE 9 15 29.8 1009 10 16.09344 0.05 1.27
6:55 pm 18:55 Mostly Cloudy with Light Thunderstorms 71 21.5 70 21.1 98 98 Calm 29.83 1010 10 16.09344 0.06 1.524
7:15 pm 19:15 Cloudy with Light Rain 71 21.5 70 21 97 97 NE 13 20 29.83 1010 10 16.09344 0 0
7:35 pm 19:35 Mostly Cloudy 69 20.8 68 20.2 96 96 NE 15 24 29.8 1009 10 16.09344 0 0
7:55 pm 19:55 Partly Cloudy 69 20.7 69 20.3 98 98 NE 10 17 29.8 1009 10 16.09344 0 0
8:15 pm 20:15 Mostly Cloudy with Rain 69 20.8 69 20.5 98 98 NE 12 19 29.83 1010 10 16.09344 0.01 0.254
8:35 pm 20:35 Cloudy 69 20.8 69 20.5 98 98 NE 10 17 29.83 1010 7 11.265408 0.06 1.524
8:55 pm 20:55 Cloudy with Thunderstorms 69 20.5 69 20.3 99 99 SSE 3 6 29.85 1011 4 6.437376 0.24 6.096
9:15 pm 21:15 Cloudy with Thunderstorms 68 19.9 67 19.6 98 98 SSE 5 7 29.85 1011 5 8.04672 0.05 1.27
9:35 pm 21:35 Cloudy with Thunderstorms 69 20.3 68 20 98 98 NNE 8 13 29.88 1012 5 8.04672 0.15 3.81
9:55 pm 21:55 Cloudy 69 20.3 68 19.9 98 98 ENE 7 11 29.88 1012 10 16.09344 0.18 4.572
10:15 pm 22:15 Cloudy with Rain 67 19.4 65 18.6 95 95 W 6 9 29.94 1014 5 8.04672 0.09 2.286
10:35 pm 22:35 Cloudy with Heavy Thunderstorms 62 16.5 61 16.3 99 99 WNW 21 33 29.94 1014 2 3.218688 0.84 21.336
10:55 pm 22:55 Cloudy with Rain 62 16.6 62 16.5 99 99 NNW 9 15 29.94 1014 4 6.437376 1.07 27.178
11:15 pm 23:15 Cloudy with Rain 63 17.1 62 16.7 98 98 N 9 15 29.91 1013 10 16.09344 0.05 1.27
11:35 pm 23:35 Cloudy with Rain 64 17.5 63 17.3 99 99 NNW 6 9 29.94 1014 7 11.265408 0.11 2.794
11:55 pm 23:55 Cloudy with Light Rain 63 17.2 63 17.2 100 100 Calm 29.94 1014 10 16.09344 0.13 3.302

Powered by AerisWeather